Weather History for Wendover, UT

Change the Weather History Date:

Monday, February 11, 2013

  Actual Average Record
Temperature  
Mean Temperature 22 °F -  
Max Temperature 30 °F 41 °F 66 °F (1961)
Min Temperature 15 °F 23 °F 9 °F (1937)
Degree Days  
Heating Degree Days 42    
Moisture  
Dew Point 12 °F    
Average Humidity 66    
Maximum Humidity 86    
Minimum Humidity 46    
Precipitation  
Precipitation 0.00 in - - ()
Sea Level Pressure  
Sea Level Pressure 30.14 in    
Wind  
Wind Speed 0 mph (East)    
Max Wind Speed 4 mph    
Max Gust Speed -    
Visibility 10 miles    
Events      
Averages and records for this station are not official NWS values.
T = Trace of Precipitation, MM = Missing Value Source: NWS Daily Summary

Daily Weather History Graph

Daily Weather History Graph

Search for Another Location

Airport:

Trip Planner

Search our weather history database for the weather conditions in past years. The results will help you decide how hot, cold, wet, or windy it might be!

Date:

Astronomy

Feb. 11, 2013 Rise Set
Actual Time 7:34 AM MST 6:06 PM MST
Civil Twilight 7:06 AM MST 6:34 PM MST
Nautical Twilight 6:34 AM MST 7:07 PM MST
Astronomical Twilight 6:02 AM MST 7:38 PM MST
Moon 8:00 AM MST (2/11) 8:08 PM MST (2/11)
Length of Visible Light 11h 28m
Length of Day
10h 31m
Waxing Crescent, 3% of the Moon is Illuminated
Feb 11
Waxing Crescent
Feb 17
First Quarter
Feb 25
Full
Mar 4
Last Quarter
Mar 11
New

Hourly Weather History & Observations

Time (MST) Temp. Windchill Dew Point Humidity Pressure Visibility Wind Dir Wind Speed Gust Speed Precip Events Conditions
12:15 AM 21.2 °F - 12.2 °F 68% 30.06 in 10.0 mi Calm Calm - N/A   Clear
12:35 AM 23.0 °F - 12.2 °F 63% 30.06 in 10.0 mi Calm Calm - N/A   Clear
12:55 AM 24.8 °F - 10.4 °F 54% 30.06 in 10.0 mi Calm Calm - N/A   Clear
1:15 AM 24.8 °F - 8.6 °F 50% 30.06 in 10.0 mi Calm Calm - N/A   Clear
1:35 AM 23.0 °F - 10.4 °F 59% 30.06 in 10.0 mi Calm Calm - N/A   Clear
1:55 AM 24.8 °F - 8.6 °F 50% 30.06 in 10.0 mi Calm Calm - N/A   Clear
2:15 AM 23.0 °F - 5.0 °F 46% 30.06 in 10.0 mi Calm Calm - N/A   Clear
2:35 AM 23.0 °F - 8.6 °F 54% 30.06 in 10.0 mi Calm Calm - N/A   Clear
3:15 AM 21.2 °F - 8.6 °F 58% 30.06 in 10.0 mi Calm Calm - N/A   Clear
3:35 AM 21.2 °F - 8.6 °F 58% 30.06 in 10.0 mi Calm Calm - N/A   Clear
3:55 AM 21.2 °F - 8.6 °F 58% 30.06 in 10.0 mi Calm Calm - N/A   Clear
4:15 AM 21.2 °F - 6.8 °F 54% 30.06 in 10.0 mi Calm Calm - N/A   Clear
4:35 AM 19.4 °F - 8.6 °F 63% 30.06 in 10.0 mi Calm Calm - N/A   Clear
4:55 AM 21.2 °F - 8.6 °F 58% 30.06 in 10.0 mi Calm Calm - N/A   Clear
5:15 AM 23.0 °F - 8.6 °F 54% 30.06 in 10.0 mi Calm Calm - N/A   Clear
5:35 AM 17.6 °F - 6.8 °F 63% 30.07 in 10.0 mi Calm Calm - N/A   Clear
5:55 AM 21.2 °F - 8.6 °F 58% 30.07 in 10.0 mi Calm Calm - N/A   Clear
6:15 AM 17.6 °F - 8.6 °F 68% 30.07 in 10.0 mi Calm Calm - N/A   Clear
6:35 AM 15.8 °F - 8.6 °F 73% 30.08 in 10.0 mi Calm Calm - N/A   Clear
6:55 AM 17.6 °F - 8.6 °F 68% 30.08 in 10.0 mi Calm Calm - N/A   Clear
7:15 AM 17.6 °F - 8.6 °F 68% 30.09 in 10.0 mi Calm Calm - N/A   Clear
7:35 AM 15.8 °F - 8.6 °F 73% 30.09 in 10.0 mi Calm Calm - N/A   Clear
7:55 AM 15.8 °F - 8.6 °F 73% 30.10 in 10.0 mi Calm Calm - N/A   Clear
8:15 AM 17.6 °F - 8.6 °F 68% 30.11 in 10.0 mi Calm Calm - N/A   Clear
8:35 AM 19.4 °F - 10.4 °F 68% 30.12 in 10.0 mi Calm Calm - N/A   Clear
8:55 AM 21.2 °F - 12.2 °F 68% 30.12 in 10.0 mi Calm Calm - N/A   Clear
9:15 AM 21.2 °F - 12.2 °F 68% 30.13 in 10.0 mi Calm Calm - N/A   Clear
9:35 AM 21.2 °F - 12.2 °F 68% 30.14 in 10.0 mi Calm Calm - N/A   Clear
9:55 AM 21.2 °F - 12.2 °F 68% 30.15 in 10.0 mi Calm Calm - N/A   Clear
10:15 AM 21.2 °F - 14.0 °F 74% 30.15 in 10.0 mi Calm Calm - N/A   Clear
10:35 AM 24.8 °F - 12.2 °F 59% 30.16 in 10.0 mi Calm Calm - N/A   Clear
10:55 AM 24.8 °F - 12.2 °F 59% 30.16 in 10.0 mi Calm Calm - N/A   Clear
11:15 AM 24.8 °F - 15.8 °F 69% 30.17 in 10.0 mi Calm Calm - N/A   Clear
11:35 AM 26.6 °F - 15.8 °F 64% 30.17 in 10.0 mi Calm Calm - N/A   Clear
11:55 AM 26.6 °F - 14.0 °F 59% 30.17 in 10.0 mi Calm Calm - N/A   Clear
12:15 PM 26.6 °F - 14.0 °F 59% 30.17 in 10.0 mi Calm Calm - N/A   Clear
12:35 PM 26.6 °F 22.6 °F 14.0 °F 59% 30.17 in 10.0 mi ENE 3.5 mph - N/A   Clear
12:55 PM 28.4 °F - 15.8 °F 59% 30.16 in 10.0 mi Calm Calm - N/A   Clear
1:15 PM 28.4 °F 24.6 °F 15.8 °F 59% 30.16 in 10.0 mi East 3.5 mph - N/A   Clear
1:35 PM 28.4 °F - 15.8 °F 59% 30.16 in 10.0 mi Calm Calm - N/A   Clear
1:55 PM 28.4 °F 24.6 °F 15.8 °F 59% 30.16 in 10.0 mi East 3.5 mph - N/A   Clear
2:15 PM 30.2 °F - 15.8 °F 55% 30.16 in 10.0 mi Calm Calm - N/A   Clear
2:35 PM 30.2 °F - 15.8 °F 55% 30.15 in 10.0 mi Calm Calm - N/A   Clear
2:55 PM 30.2 °F 26.7 °F 15.8 °F 55% 30.15 in 10.0 mi ESE 3.5 mph - N/A   Clear
3:55 PM 30.2 °F - 17.6 °F 60% 30.15 in 10.0 mi Calm Calm - N/A   Clear
4:15 PM 30.2 °F - 17.6 °F 60% 30.16 in 10.0 mi Calm Calm - N/A   Clear
4:35 PM 28.4 °F - 19.4 °F 69% 30.16 in 10.0 mi Calm Calm - N/A   Clear
4:55 PM 28.4 °F - 19.4 °F 69% 30.16 in 10.0 mi Calm Calm - N/A   Clear
5:15 PM 28.4 °F - 19.4 °F 69% 30.16 in 10.0 mi Calm Calm - N/A   Clear
5:35 PM 26.6 °F 22.6 °F 17.6 °F 69% 30.17 in 10.0 mi SE 3.5 mph - N/A   Clear
5:55 PM 24.8 °F - 17.6 °F 74% 30.18 in 10.0 mi Calm Calm - N/A   Partly Cloudy
6:15 PM 24.8 °F - 15.8 °F 69% 30.18 in 10.0 mi Calm Calm - N/A   Clear
6:35 PM 23.0 °F - 15.8 °F 74% 30.19 in 10.0 mi Calm Calm - N/A   Clear
6:55 PM 21.2 °F - 15.8 °F 80% 30.19 in 10.0 mi Calm Calm - N/A   Clear
7:15 PM 21.2 °F - 14.0 °F 74% 30.20 in 10.0 mi Calm Calm - N/A   Clear
7:35 PM 21.2 °F - 12.2 °F 68% 30.20 in 10.0 mi Calm Calm - N/A   Clear
7:55 PM 21.2 °F - 12.2 °F 68% 30.20 in 10.0 mi Calm Calm - N/A   Clear
8:15 PM 19.4 °F - 14.0 °F 80% 30.20 in 10.0 mi Calm Calm - N/A   Clear
8:35 PM 19.4 °F - 14.0 °F 80% 30.20 in 10.0 mi Calm Calm - N/A   Clear
9:15 PM 19.4 °F - 12.2 °F 74% 30.21 in 10.0 mi Calm Calm - N/A   Clear
9:35 PM 17.6 °F - 14.0 °F 86% 30.21 in 10.0 mi Calm Calm - N/A   Clear
9:55 PM 17.6 °F - 14.0 °F 86% 30.22 in 10.0 mi Calm Calm - N/A   Clear
10:15 PM 17.6 °F - 12.2 °F 79% 30.22 in 10.0 mi Calm Calm - N/A   Clear
10:35 PM 17.6 °F - 12.2 °F 79% 30.22 in 10.0 mi Calm Calm - N/A   Clear
10:55 PM 17.6 °F - 12.2 °F 79% 30.22 in 10.0 mi Calm Calm - N/A   Clear
11:15 PM 17.6 °F - 12.2 °F 79% 30.22 in 10.0 mi Calm Calm - N/A   Clear
11:35 PM 17.6 °F - 12.2 °F 79% 30.23 in 10.0 mi Calm Calm - N/A   Clear
11:55 PM 17.6 °F - 10.4 °F 73% 30.23 in 10.0 mi Calm Calm - N/A   Clear